Volver al catálogo

ARIANE 5 DEB

SYLDA

ActivoHEO
NORAD 44803·DEBRIS·🇫🇷 France

Lanzado Nov 26, 2019 desde Guiana Space Centre

Loading…

Próximos Pases (próximas 24 horas)

TLE

ActualizadoSource: Space-Track

Época: Sep 14, 2026, 01:16 UTC

1 44803U 19080D   26257.05309006  .00164243  00000-0  40534-2 0  9990
2 44803   5.3243 131.9332 3633942 303.2990  26.9679  8.19796825111216

Sigue ARIANE 5 DEB en tiempo real con AllMySat

Download on the App Store